Morgantown, WV

3:10 PM EST on January 20, 2017 (GMT -0500)
Morgantown Municipal-Hart

Weather History for KMGW - February, 2013

Change the Weather History Date:

Friday, February 15, 2013

  Actual Average Record
Temperature  
Mean Temperature 37 °F 34 °F  
Max Temperature 41 °F 43 °F 72 °F (1954)
Min Temperature 32 °F 25 °F -2 °F (2015)
Degree Days  
Heating Degree Days 28 31  
Month to date heating degree days 495 480  
Since 1 July heating degree days 3279 3507  
Moisture  
Dew Point 30 °F    
Average Humidity 75    
Maximum Humidity 96    
Minimum Humidity 54    
Precipitation  
Precipitation 0.04 in 0.09 in 1.75 in (1989)
Month to date precipitation 0.38 1.35  
Year to date precipitation 3.52 4.16  
Sea Level Pressure  
Sea Level Pressure 30.02 in    
Wind  
Wind Speed 4 mph (WSW)    
Max Wind Speed 10 mph    
Max Gust Speed 16 mph    
Visibility 6 miles    
Events Snow    
T = Trace of Precipitation, MM = Missing Value Source: NWS Daily Summary

Daily Weather History Graph

Daily Weather History Graph

Search for Another Location

Airport or City:

Trip Planner

Search our weather history database for the weather conditions in past years. The results will help you decide how hot, cold, wet, or windy it might be!

Date:

Astronomy

Feb. 15, 2013 Rise Set
Actual Time 7:11 AM EST 5:56 PM EST
Civil Twilight 6:44 AM EST 6:24 PM EST
Nautical Twilight 6:12 AM EST 6:55 PM EST
Astronomical Twilight 5:41 AM EST 7:26 PM EST
Moon 9:48 AM EST (2/15) 11:54 PM EST (2/15)
Length of Visible Light 11h 39m
Length of Day
10h 44m
Waxing Crescent, 30% of the Moon is Illuminated
Feb 15
Waxing Crescent
Feb 17
First Quarter
Feb 25
Full
Mar 4
Last Quarter
Mar 11
New

Hourly Weather History & Observations

Time (EST) Temp. Windchill Dew Point Humidity Pressure Visibility Wind Dir Wind Speed Gust Speed Precip Events Conditions
12:53 AM 39.0 °F 35.7 °F 28.9 °F 67% 29.95 in 10.0 mi South 4.6 mph - N/A   Clear
1:53 AM 39.9 °F 37.8 °F 28.9 °F 65% 29.95 in 10.0 mi SSW 3.5 mph - N/A   Clear
2:50 AM 39.2 °F 35.9 °F 32.0 °F 75% 29.96 in 10.0 mi WNW 4.6 mph - N/A   Overcast
2:53 AM 39.9 °F 35.8 °F 32.0 °F 73% 29.99 in 10.0 mi West 5.8 mph - N/A   Overcast
3:53 AM 39.0 °F 35.7 °F 30.9 °F 73% 30.00 in 10.0 mi Variable 4.6 mph - N/A   Overcast
4:02 AM 37.4 °F 34.9 °F 30.2 °F 75% 29.97 in 10.0 mi West 3.5 mph - N/A   Overcast
4:53 AM 37.9 °F 35.5 °F 25.0 °F 60% 30.01 in 10.0 mi Variable 3.5 mph - N/A   Overcast
5:53 AM 36.0 °F - 26.1 °F 67% 30.01 in 10.0 mi Calm Calm - N/A   Mostly Cloudy
6:33 AM 35.6 °F - 26.6 °F 70% 30.00 in 9.0 mi Calm Calm - N/A   Overcast
6:53 AM 36.0 °F - 27.0 °F 70% 30.04 in 9.0 mi Calm Calm - N/A   Overcast
7:53 AM 36.0 °F - 27.0 °F 70% 30.05 in 8.0 mi Calm Calm - N/A   Overcast
8:11 AM 37.4 °F 34.9 °F 26.6 °F 65% 30.03 in 9.0 mi SW 3.5 mph - N/A   Overcast
8:53 AM 37.0 °F 34.5 °F 28.0 °F 70% 30.07 in 9.0 mi Variable 3.5 mph - N/A   Overcast
9:53 AM 37.9 °F - 26.1 °F 62% 30.07 in 10.0 mi Calm Calm - N/A   Overcast
10:53 AM 39.0 °F 34.0 °F 26.1 °F 60% 30.06 in 10.0 mi Variable 6.9 mph - N/A   Overcast
11:53 AM 39.0 °F 34.0 °F 25.0 °F 57% 30.05 in 10.0 mi WSW 6.9 mph - N/A   Overcast
12:53 PM 37.9 °F 33.5 °F 28.0 °F 68% 30.04 in 7.0 mi West 5.8 mph - N/A   Overcast
1:15 PM 37.4 °F 33.8 °F 30.2 °F 75% 30.01 in 4.0 mi WNW 4.6 mph - 0.00 in Snow Light Snow
1:24 PM 37.4 °F 33.8 °F 30.2 °F 75% 30.01 in 2.5 mi WNW 4.6 mph - 0.00 in Snow Light Snow
1:30 PM 35.6 °F 32.8 °F 30.2 °F 81% 30.01 in 1.5 mi Variable 3.5 mph - 0.00 in Snow Light Snow
1:32 PM 35.6 °F 30.7 °F 30.2 °F 81% 30.01 in 1.0 mi NW 5.8 mph - 0.00 in Snow Light Snow
1:46 PM 33.8 °F 27.7 °F 30.2 °F 87% 30.01 in 1.0 mi WNW 6.9 mph - 0.00 in Snow Light Snow
1:53 PM 33.1 °F 26.9 °F 30.0 °F 89% 30.04 in 0.8 mi WNW 6.9 mph - 0.00 in Snow Light Snow
2:07 PM 33.8 °F 30.8 °F 32.0 °F 93% 30.01 in 1.0 mi Variable 3.5 mph - 0.01 in Snow Light Snow
2:16 PM 33.8 °F 30.8 °F 32.0 °F 93% 30.01 in 1.0 mi Variable 3.5 mph - 0.01 in Snow Light Snow
2:22 PM 33.8 °F 29.6 °F 32.0 °F 93% 30.01 in 0.8 mi Variable 4.6 mph - 0.02 in Snow Light Snow
2:34 PM 33.8 °F - 32.0 °F 93% 30.01 in 1.0 mi Calm Calm - 0.02 in Snow Light Snow
2:51 PM 33.8 °F - 32.0 °F 93% 30.01 in 2.5 mi Calm Calm - 0.03 in Snow Light Snow
2:53 PM 34.0 °F - 32.0 °F 92% 30.04 in 2.5 mi Calm Calm - 0.03 in   Overcast
3:09 PM 33.8 °F 30.8 °F 32.0 °F 93% 30.01 in 1.2 mi WNW 3.5 mph - 0.00 in Snow Light Snow
3:31 PM 33.8 °F - 32.0 °F 93% 30.00 in 2.0 mi Calm Calm - 0.01 in Snow Light Snow
3:44 PM 33.8 °F - 32.0 °F 93% 30.00 in 2.5 mi Calm Calm - 0.01 in Snow Light Snow
3:53 PM 34.0 °F - 32.0 °F 92% 30.03 in 1.0 mi Calm Calm - 0.01 in Snow Light Snow
4:02 PM 33.8 °F - 32.0 °F 93% 30.01 in 2.0 mi Calm Calm - 0.00 in Snow Light Snow
4:07 PM 33.8 °F - 33.8 °F 100% 30.01 in 3.0 mi Calm Calm - 0.00 in Snow Light Snow
4:11 PM 33.8 °F 29.6 °F 33.8 °F 100% 30.01 in 4.0 mi SW 4.6 mph - 0.00 in Snow Light Snow
4:13 PM 33.8 °F 30.8 °F 33.8 °F 100% 30.01 in 6.0 mi SW 3.5 mph - 0.00 in   Overcast
4:34 PM 33.8 °F 30.8 °F 33.8 °F 100% 30.01 in 6.0 mi South 3.5 mph - 0.00 in   Overcast
4:53 PM 34.0 °F 29.8 °F 32.0 °F 92% 30.04 in 4.0 mi South 4.6 mph - 0.00 in   Overcast
5:03 PM 33.8 °F 30.8 °F 32.0 °F 93% 30.01 in 5.0 mi South 3.5 mph - N/A   Overcast
5:11 PM 33.8 °F 30.8 °F 33.8 °F 100% 30.01 in 7.0 mi South 3.5 mph - N/A   Overcast
5:24 PM 33.8 °F 29.6 °F 32.0 °F 93% 30.01 in 9.0 mi SSW 4.6 mph - N/A   Overcast
5:36 PM 33.8 °F 29.6 °F 32.0 °F 93% 30.01 in 10.0 mi SSW 4.6 mph - N/A   Overcast
5:53 PM 34.0 °F 31.0 °F 32.0 °F 92% 30.04 in 7.0 mi SSW 3.5 mph - 0.00 in Snow Light Snow
6:02 PM 33.8 °F 30.8 °F 32.0 °F 93% 30.01 in 7.0 mi SSW 3.5 mph - 0.00 in Snow Light Snow
6:12 PM 33.8 °F - 30.2 °F 87% 30.01 in 9.0 mi Calm Calm - 0.00 in Snow Light Snow
6:53 PM 33.1 °F 30.0 °F 32.0 °F 96% 30.05 in 7.0 mi SSW 3.5 mph - 0.00 in   Overcast
7:23 PM 33.8 °F 30.8 °F 32.0 °F 93% 30.02 in 6.0 mi South 3.5 mph - N/A   Overcast
7:53 PM 33.1 °F 30.0 °F 32.0 °F 96% 30.05 in 7.0 mi South 3.5 mph - N/A   Overcast
8:53 PM 33.1 °F 30.0 °F 32.0 °F 96% 30.04 in 8.0 mi South 3.5 mph - N/A   Overcast
9:33 PM 33.8 °F 27.0 °F 30.2 °F 87% 30.02 in 9.0 mi SW 8.1 mph 16.1 mph 0.00 in   Overcast
9:48 PM 33.8 °F 28.6 °F 30.2 °F 87% 30.02 in 1.5 mi West 5.8 mph - 0.00 in Snow Light Snow
9:53 PM 33.1 °F 27.7 °F 30.9 °F 92% 30.06 in 1.0 mi West 5.8 mph - 0.00 in Snow Light Snow
9:59 PM 33.8 °F 30.8 °F 30.2 °F 87% 30.03 in 2.5 mi NW 3.5 mph - 0.00 in Snow Light Snow
10:06 PM 33.8 °F 28.6 °F 30.2 °F 87% 30.03 in 9.0 mi WNW 5.8 mph - 0.00 in   Overcast
10:39 PM 32.0 °F 25.6 °F 28.4 °F 87% 30.03 in 10.0 mi WNW 6.9 mph - 0.00 in   Overcast
10:53 PM 32.0 °F 27.5 °F 28.9 °F 88% 30.06 in 10.0 mi WNW 4.6 mph - 0.00 in   Overcast
11:45 PM 32.0 °F 28.7 °F 26.6 °F 80% 30.03 in 10.0 mi WNW 3.5 mph - N/A   Overcast
11:53 PM 32.0 °F 27.5 °F 27.0 °F 82% 30.06 in 10.0 mi WNW 4.6 mph - N/A   Overcast